This is the latest recevied weather packets stored in our database for station/object N9OJR. If no packets are shown the sender has not sent any weather packets the latest 10 day(s).
| Time | Temp. | Humidity | Pressure | Rain* | Wind** | Luminosity | Snow |
|---|---|---|---|---|---|---|---|
| 1777081071 | 17.78° C | 87% | 1003.8 hPa | 0 mm | - | 0 W/m² | - |
| 1777080771 | 17.78° C | 89% | 1003.8 hPa | 1.78 mm | - | 0 W/m² | - |
| 1777080466 | 17.78° C | 89% | 1003.9 hPa | 1.78 mm | - | 0 W/m² | - |
| 1777080161 | 18.33° C | 88% | 1003.9 hPa | 0 mm | - | 0 W/m² | - |
| 1777079860 | 18.33° C | 87% | 1004.1 hPa | 0 mm | - | 0 W/m² | - |
| 1777079555 | 17.78° C | 90% | 1004 hPa | 0 mm | - | 0 W/m² | - |
| 1777079251 | 17.78° C | 91% | 1004.1 hPa | 0 mm | - | 0 W/m² | - |
| 1777078947 | 18.33° C | 90% | 1003.8 hPa | 0 mm | - | 0 W/m² | - |
| 1777078643 | 18.33° C | 89% | 1003.6 hPa | 0 mm | - | 0 W/m² | - |
| 1777078335 | 18.33° C | 88% | 1003.5 hPa | 0 mm | - | 0 W/m² | - |
| 1777078029 | 18.33° C | 89% | 1003.6 hPa | 0 mm | - | 0 W/m² | - |
| 1777077724 | 18.33° C | 89% | 1003.7 hPa | 0 mm | - | 0 W/m² | - |
| 1777077421 | 18.33° C | 90% | 1003.7 hPa | 0 mm | - | 0 W/m² | - |
| 1777077120 | 18.33° C | 90% | 1004 hPa | 0 mm | - | 0 W/m² | - |
| 1777076815 | 17.78° C | 91% | 1003.6 hPa | 0 mm | - | 0 W/m² | - |
| 1777076512 | 17.78° C | 93% | 1003.8 hPa | 0 mm | - | 0 W/m² | - |
| 1777076207 | 17.78° C | 93% | 1004 hPa | 0 mm | - | 0 W/m² | - |
| 1777075903 | 18.33° C | 92% | 1004.3 hPa | 0 mm | - | 0 W/m² | - |
| 1777075599 | 18.33° C | 90% | 1004.2 hPa | 0 mm | - | 0 W/m² | - |
| 1777075295 | 18.33° C | 90% | 1004.2 hPa | 0 mm | - | 0 W/m² | - |
* Rain latest hour (hover to see other rain measurements)
** Current wind speed in m/s (hover to see current wind gust speed)